Weather History for KTVL - November, 2011

Change the Weather History Date:

Friday, November 18, 2011

  Actual Average Record
Temperature  
Mean Temperature 38 °F 35 °F  
Max Temperature 43 °F 49 °F 70 °F (1995)
Min Temperature 32 °F 22 °F 7 °F (1985)
Degree Days  
Heating Degree Days 27 30  
Month to date heating degree days 514 483  
Since 1 July heating degree days 1486 1715  
Cooling Degree Days 0 0  
Month to date cooling degree days 0 0  
Year to date cooling degree days 19 31  
Moisture  
Dew Point 24 °F    
Average Humidity 55    
Maximum Humidity 69    
Minimum Humidity 41    
Precipitation  
Precipitation T in - 3.05 in (1946)
Month to date precipitation 0.59  
Year to date precipitation 15.55  
Snow  
Snow 0.00 in - - ()
Month to date snowfall 0.0  
Snow Depth 0.00 in    
Sea Level Pressure  
Sea Level Pressure 29.68 in    
Wind  
Wind Speed 22 mph (SSW)    
Max Wind Speed 36 mph    
Max Gust Speed 61 mph    
Visibility 5 miles    
Events Rain , Snow    
T = Trace of Precipitation, MM = Missing Value Source: NWS Daily Summary

Daily Weather History Graph

Daily Weather History Graph

Search for Another Location

Airport or City:

Trip Planner

Search our weather history database for the weather conditions in past years. The results will help you decide how hot, cold, wet, or windy it might be!

Date:

Astronomy

Nov. 18, 2011 Rise Set
Actual Time 6:45 AM PST 4:44 PM PST
Civil Twilight 6:17 AM PST 5:12 PM PST
Nautical Twilight 5:44 AM PST 5:45 PM PST
Astronomical Twilight 5:13 AM PST 6:16 PM PST
Moon No Moon Rise 12:29 PM PST (11/18)
Length of Visible Light 10h 55m
Length of Day
9h 58m
Waning Gibbous, 48% of the Moon is Illuminated
Nov 18
Waning Gibbous
Nov 24
New
Dec 2
First Quarter
Dec 10
Full
Dec 17
Last Quarter

Hourly Weather History & Observations

Time (PST) Temp. Windchill Dew Point Humidity Pressure Visibility Wind Dir Wind Speed Gust Speed Precip Events Conditions
12:53 AM 41.0 °F 33.1 °F 26.6 °F 57% 29.90 in 10.0 mi SSW 15.0 mph 28.8 mph N/A   Scattered Clouds
1:53 AM 42.1 °F 33.6 °F 24.1 °F 49% 29.75 in 10.0 mi SSW 18.4 mph 38.0 mph N/A   Clear
2:53 AM 41.0 °F 31.1 °F 23.0 °F 49% 29.75 in 10.0 mi SSW 23.0 mph 38.0 mph N/A   Clear
3:53 AM 41.0 °F 31.1 °F 21.9 °F 47% 29.72 in 10.0 mi SSW 23.0 mph 34.5 mph N/A   Clear
4:53 AM 41.0 °F 31.1 °F 19.9 °F 43% 29.70 in 10.0 mi SSW 23.0 mph 42.6 mph N/A   Clear
5:53 AM 39.9 °F 29.7 °F 23.0 °F 51% 29.70 in 10.0 mi SSW 23.0 mph 46.0 mph 0.00 in   Clear
6:53 AM 39.9 °F 29.7 °F 23.0 °F 51% 29.69 in 10.0 mi SSW 23.0 mph 48.3 mph N/A   Clear
7:53 AM 41.0 °F 31.1 °F 21.9 °F 47% 29.70 in 10.0 mi SSW 23.0 mph 46.0 mph N/A   Clear
8:53 AM 42.1 °F 31.7 °F 23.0 °F 47% 29.70 in 10.0 mi SSW 27.6 mph 44.9 mph N/A   Clear
9:53 AM 43.0 °F 34.0 °F 24.1 °F 47% 29.69 in 10.0 mi SSW 21.9 mph 39.1 mph N/A   Clear
10:53 AM 42.1 °F 31.9 °F 25.0 °F 51% 29.68 in 10.0 mi SSW 26.5 mph 47.2 mph N/A   Clear
11:39 AM 39.2 °F 27.4 °F 26.6 °F 61% 29.73 in 8.0 mi SSW 29.9 mph 43.7 mph N/A   Mostly Cloudy
11:53 AM 39.0 °F 27.6 °F 26.1 °F 60% 29.66 in 8.0 mi SSW 27.6 mph 47.2 mph 0.00 in   Overcast
12:20 PM 37.4 °F 25.4 °F 26.6 °F 65% 29.72 in 3.0 mi SSW 27.6 mph 41.4 mph 0.00 in Rain Light Rain
12:31 PM 37.4 °F 25.6 °F 26.6 °F 65% 29.71 in 6.0 mi SSW 26.5 mph 42.6 mph 0.00 in Rain Light Rain
12:48 PM 37.4 °F 25.4 °F 24.8 °F 60% 29.70 in 5.0 mi SSW 27.6 mph 42.6 mph 0.00 in Rain Light Rain
12:53 PM 37.4 °F 25.4 °F 26.6 °F 65% 29.70 in 4.0 mi SSW 27.6 mph 43.7 mph N/A Rain Light Rain
1:03 PM 37.4 °F 25.2 °F 26.6 °F 65% 29.69 in 2.0 mi SSW 28.8 mph 46.0 mph 0.00 in Snow Light Snow
1:29 PM 35.6 °F 22.7 °F 26.6 °F 70% 29.68 in 1.5 mi SSW 28.8 mph 48.3 mph 0.00 in Snow Light Snow
1:51 PM 33.8 °F 22.2 °F 26.6 °F 75% 29.68 in 0.8 mi SSW 20.7 mph 42.6 mph 0.00 in Snow Light Snow
1:53 PM 34.0 °F 21.8 °F 26.1 °F 73% 29.63 in 0.8 mi SSW 23.0 mph 39.1 mph 0.00 in Snow Light Snow
2:03 PM 35.6 °F 25.2 °F 24.8 °F 65% 29.68 in 1.2 mi SSW 18.4 mph 40.3 mph 0.00 in Snow Light Snow
2:36 PM 35.6 °F 23.2 °F 23.0 °F 60% 29.70 in 3.0 mi SSW 26.5 mph 50.6 mph 0.00 in Snow Light Snow
2:51 PM 35.6 °F 22.3 °F 23.0 °F 60% 29.69 in 1.8 mi SSW 31.1 mph 49.5 mph 0.00 in Snow Light Snow
2:53 PM 35.1 °F 21.2 °F 24.1 °F 64% 29.63 in 1.2 mi SSW 33.4 mph 49.5 mph 0.00 in Snow Light Snow
3:03 PM 33.8 °F 21.0 °F 24.8 °F 70% 29.70 in 0.5 mi SSW 25.3 mph 43.7 mph 0.00 in Snow Snow
3:06 PM 33.8 °F 22.5 °F 24.8 °F 70% 29.69 in 0.5 mi SSW 19.6 mph 43.7 mph 0.00 in Snow Snow
3:12 PM 33.8 °F 21.9 °F 23.0 °F 65% 29.69 in 1.2 mi SSW 21.9 mph 39.1 mph 0.00 in Snow Light Snow
3:15 PM 35.6 °F 24.0 °F 21.2 °F 56% 29.69 in 4.0 mi SSW 23.0 mph 41.4 mph 0.00 in Snow Light Snow
3:20 PM 35.6 °F 23.2 °F 21.2 °F 56% 29.69 in 9.0 mi SSW 26.5 mph 42.6 mph 0.00 in   Mostly Cloudy
3:53 PM 34.0 °F 23.4 °F 21.9 °F 61% 29.63 in 8.0 mi SSW 17.3 mph 39.1 mph 0.00 in   Overcast
4:05 PM 33.8 °F 22.5 °F 23.0 °F 65% 29.67 in 2.5 mi SSW 19.6 mph 41.4 mph 0.00 in Snow Light Snow
4:10 PM 33.8 °F 20.8 °F 23.0 °F 65% 29.66 in 1.5 mi SSW 26.5 mph 43.7 mph 0.00 in Snow Light Snow
4:36 PM 33.8 °F 23.2 °F 24.8 °F 70% 29.65 in 0.5 mi SSW 17.3 mph 46.0 mph 0.00 in Snow Snow
4:53 PM 34.0 °F 19.7 °F 23.0 °F 64% 29.57 in 0.8 mi SSW 33.4 mph 52.9 mph 0.00 in Snow Light Snow
5:03 PM 33.8 °F 21.9 °F 24.8 °F 70% 29.62 in 1.5 mi SSW 21.9 mph 48.3 mph 0.00 in Snow Light Snow
5:37 PM 33.8 °F 21.6 °F 24.8 °F 70% 29.65 in 0.5 mi SSW 23.0 mph 43.7 mph 0.00 in Snow Snow
5:44 PM 32.0 °F 20.5 °F 26.6 °F 80% 29.65 in 0.2 mi SSW 18.4 mph 39.1 mph 0.00 in Snow Heavy Snow
5:49 PM 32.0 °F 22.5 °F 26.6 °F 80% 29.64 in 0.2 mi SW 12.7 mph 40.3 mph 0.00 in Snow Heavy Snow
5:53 PM 33.1 °F 22.2 °F 25.0 °F 72% 29.60 in 0.5 mi SSW 17.3 mph 42.6 mph 0.00 in Snow Snow
6:04 PM 32.0 °F 20.5 °F 24.8 °F 75% 29.65 in 0.8 mi SSW 18.4 mph 38.0 mph N/A Snow Light Snow
6:14 PM 33.8 °F 23.5 °F 24.8 °F 70% 29.65 in 0.5 mi SSW 16.1 mph 47.2 mph 0.00 in Snow Snow
6:29 PM 33.8 °F 22.5 °F 23.0 °F 65% 29.63 in 1.0 mi SSW 19.6 mph 41.4 mph 0.00 in Snow Light Snow
6:40 PM 33.8 °F 20.3 °F 21.2 °F 60% 29.63 in 3.0 mi SSW 28.8 mph 51.8 mph 0.00 in Snow Light Snow
6:53 PM 34.0 °F 22.1 °F 21.9 °F 61% 29.58 in 3.0 mi SW 21.9 mph 42.6 mph 0.00 in Snow Light Snow
7:01 PM 33.8 °F 22.8 °F 23.0 °F 65% 29.63 in 1.8 mi SSW 18.4 mph 42.6 mph 0.00 in Snow Light Snow
7:53 PM 34.0 °F 23.4 °F 23.0 °F 64% 29.62 in 1.5 mi SSW 17.3 mph 35.7 mph 0.00 in Snow Light Snow
8:13 PM 33.8 °F 25.8 °F 21.2 °F 60% 29.70 in 3.0 mi South 10.4 mph 29.9 mph 0.00 in Snow Light Snow
8:34 PM 33.8 °F 23.9 °F 21.2 °F 60% 29.73 in 5.0 mi South 15.0 mph 32.2 mph 0.00 in Snow Light Snow
8:53 PM 34.0 °F 25.0 °F 21.0 °F 59% 29.70 in 7.0 mi SSW 12.7 mph 26.5 mph 0.00 in   Overcast
9:05 PM 33.8 °F 23.9 °F 21.2 °F 60% 29.76 in 3.0 mi South 15.0 mph 35.7 mph 0.00 in Snow Light Snow
9:16 PM 33.8 °F 23.2 °F 21.2 °F 60% 29.77 in 9.0 mi South 17.3 mph 28.8 mph 0.00 in   Overcast
9:53 PM 32.0 °F 24.2 °F 21.0 °F 64% 29.73 in 10.0 mi SSE 9.2 mph 24.2 mph 0.00 in   Overcast
10:53 PM 32.0 °F 23.0 °F 21.0 °F 64% 29.73 in 10.0 mi South 11.5 mph 28.8 mph N/A   Overcast
11:53 PM 33.1 °F 22.2 °F 19.0 °F 56% 29.74 in 10.0 mi SW 17.3 mph 28.8 mph N/A   Overcast